Regional Weather Roundup
Issued by NWS New Orleans/Baton Rouge, LA

Home | Current Version | Previous Version | Graphics & Text | Print | Product List | Glossary On
Versions: 1 2 3 4 5 6 7 8 9 10 11 12 13 14 15 16 17 18 19 20 21 22 23 24 25 26 27 28 29 30 31 32 33 34 35 36 37 38 39 40 41 42 43 44 45 46 47 48 49 50
571
ASUS44 KLIX 020101
RWRLIX
NEW ORLEANS REGIONAL WEATHER ROUNDUP
NATIONAL WEATHER SERVICE NEW ORLEANS LA
800 PM CDT MON SEP 01 2014

NOTE: "FAIR" INDICATES FEW OR NO CLOUDS BELOW 12,000 FEET WITH NO
      SIGNIFICANT WEATHER AND/OR OBSTRUCTIONS TO VISIBILITY.
      SKY/WX - SKY CONDITION AND SIGNIFICANT WEATHER.
      TMP - AIR TEMPERATURE.     DP    - DEWPOINT TEMPERATURE.
      RH  - RELATIVE HUMIDITY.   PRES  - PRESSURE.
      HI  - HEAT INDEX.          WCI   - WIND CHILL INDEX.

*  THESE STATIONS ARE NOT NWS OR FAA STATIONS AND ARE NOT UNDER
   NWS QUALITY CONTROL.

LAZ038-040-048-061>063-065>067-069-020200-
SOUTHEAST LOUISIANA

CITY           SKY/WX    TMP DP  RH WIND       PRES   REMARKS
N.O. AUDUBON     N/A     82  79  92 MISG        N/A
N.O. INTL ARPT LGT RAIN  81  75  82 CALM      30.02R
N.O. LAKEFRONT CLOUDY    81  76  84 SE6       30.04R
N.O. DOWNTOWN*   N/A     82  73  74 E5        30.04R
SLIDELL        CLOUDY    78  75  90 CALM      30.03R
BATON ROUGE    CLOUDY    79  74  84 E9        30.01R
BOOTHVILLE     MOCLDY    82  76  81 SE7       30.03R
BELLE CHASSE   CLOUDY    81  76  84 MISG      30.03R
BOGALUSA*        N/A     79  74  86 CALM      30.05S
GALLIANO*      NOT AVBL
NEW ROADS*       N/A     80  77  92 E3        30.00F
GONZALES*      MOCLDY    81  80  98 NE3       30.01R
HAMMOND*       NOT AVBL
HOUMA*         MOCLDY    82  73  73 S3        30.01R
PORT FOURCHON* CLOUDY    84  75  74 S9        30.03R

$$

MSZ070-080>082-020200-
SOUTHERN MISSISSIPPI

CITY           SKY/WX    TMP DP  RH WIND       PRES   REMARKS
MCCOMB         LGT RAIN  77  74  90 SE6       30.04R
GULFPORT       MOCLDY    83  76  79 S5        30.03R
BILOXI         PTCLDY    85  75  73 S8        30.04R
PASCAGOULA     MOCLDY    77  74  90 S3        30.04S
STENNIS ARPT*  PTCLDY   N/A N/A N/A CALM      30.04R

$$

COASTAL OBSERVATIONS
LAKE AND NEARSHORE STATIONS

STATION/POSITION TIME  TEMP    WIND        PRES    WAVE
                       AIR SEA DIR/SP/G            HT/PER
                 (UTC) (F)     (DEG/KT/KT) (MB)    (FT/S)
PASCAGOULA       0000   82     130/  1/  2 1016.9
WAVELAND YACHT   0000   84     160/ 10/ 11 1016.4
GRAND ISLE       0000   83 85  160/  6/ 10 1016.7
SOUTHWEST PASS   0000   83 91  140/ 10/ 13 1016.8
NEW CANAL        0000   80 82   CALM  /  1 1017.0
SHELL BEACH      0000   81 81  110/  8/  9 1016.5

OFFSHORE STATIONS

STATION/POSITION TIME  TEMP    WIND        PRES    WAVE
                       AIR SEA DIR/SP/G            HT/PER
                 (UTC) (F)     (DEG/KT/KT) (MB)    (FT/S)

$$




USA.gov is the U.S. government's official web portal to all federal, state and local government web resources and services.